| time (UTC) | temp F | wind direction | speed MPH | gust MPH | rain 1hr in | rain 24hr in | rain mn in | humidity % | barometer mb |
| 20260503222204 | 59 | 153 | 3.0 | 7.0 | 0.00 | 0.00 | 0.00 | 44 | 1020.4 |
| 20260503221704 | 59 | 165 | 2.0 | 7.0 | 0.00 | 0.00 | 0.00 | 44 | 1020.3 |
| 20260503220704 | 59 | 166 | 3.0 | 6.0 | 0.00 | 0.00 | 0.00 | 43 | 1020.3 |
| 20260503220204 | 59 | 162 | 5.0 | 6.0 | 0.00 | 0.00 | 0.00 | 43 | 1020.4 |
| 20260503215704 | 59 | 150 | 3.0 | 6.0 | 0.00 | 0.00 | 0.00 | 43 | 1020.2 |
| 20260503215204 | 59 | 172 | 3.0 | 6.0 | 0.00 | 0.00 | 0.00 | 42 | 1020.4 |
| 20260503214704 | 60 | 130 | 3.0 | 6.0 | 0.00 | 0.00 | 0.00 | 42 | 1020.5 |
| 20260503214204 | 60 | 156 | 3.0 | 6.0 | 0.00 | 0.00 | 0.00 | 42 | 1020.4 |
| 20260503213704 | 60 | 144 | 3.0 | 6.0 | 0.00 | 0.00 | 0.00 | 42 | 1020.5 |
| 20260503212704 | 60 | 154 | 3.0 | 6.0 | 0.00 | 0.00 | 0.00 | 41 | 1020.4 |
| 20260503211704 | 61 | 162 | 3.0 | 7.0 | 0.00 | 0.00 | 0.00 | 40 | 1020.3 |
| 20260503211204 | 61 | 145 | 3.0 | 7.0 | 0.00 | 0.00 | 0.00 | 40 | 1020.0 |
| 20260503210704 | 61 | 134 | 5.0 | 8.0 | 0.00 | 0.00 | 0.00 | 40 | 1020.4 |
| 20260503210204 | 62 | 139 | 4.0 | 7.0 | 0.00 | 0.00 | 0.00 | 39 | 1020.2 |
| 20260503205704 | 62 | 151 | 3.0 | 8.0 | 0.00 | 0.00 | 0.00 | 39 | 1020.4 |
| 20260503205204 | 62 | 140 | 3.0 | 6.0 | 0.00 | 0.00 | 0.00 | 39 | 1020.4 |
| 20260503204204 | 62 | 153 | 3.0 | 7.0 | 0.00 | 0.00 | 0.00 | 39 | 1020.5 |
| 20260503203704 | 62 | 141 | 3.0 | 7.0 | 0.00 | 0.00 | 0.00 | 39 | 1020.6 |
| 20260503203204 | 63 | 135 | 5.0 | 8.0 | 0.00 | 0.00 | 0.00 | 38 | 1020.5 |
| 20260503202704 | 63 | 143 | 4.0 | 8.0 | 0.00 | 0.00 | 0.00 | 38 | 1020.4 |
| 20260503201704 | 63 | 140 | 6.0 | 10.0 | 0.00 | 0.00 | 0.00 | 38 | 1020.3 |
| 20260503201204 | 64 | 133 | 6.0 | 10.0 | 0.00 | 0.00 | 0.00 | 38 | 1020.5 |
| 20260503200703 | 64 | 147 | 5.0 | 9.0 | 0.00 | 0.00 | 0.00 | 37 | 1020.5 |
| 20260503200203 | 64 | 136 | 5.0 | 9.0 | 0.00 | 0.00 | 0.00 | 37 | 1020.4 |
| 20260503195704 | 64 | 135 | 5.0 | 10.0 | 0.00 | 0.00 | 0.00 | 37 | 1020.4 |
| 20260503195204 | 64 | 143 | 5.0 | 10.0 | 0.00 | 0.00 | 0.00 | 37 | 1020.6 |
| 20260503194204 | 65 | 131 | 5.0 | 12.0 | 0.00 | 0.00 | 0.00 | 37 | 1020.6 |
| 20260503193704 | 65 | 147 | 6.0 | 13.0 | 0.00 | 0.00 | 0.00 | 38 | 1020.5 |
| 20260503193205 | 65 | 120 | 7.0 | 15.0 | 0.00 | 0.00 | 0.00 | 38 | 1020.4 |
| 20260503192704 | 65 | 135 | 9.0 | 13.0 | 0.00 | 0.00 | 0.00 | 38 | 1020.6 |
| 20260503191704 | 65 | 127 | 6.0 | 10.0 | 0.00 | 0.00 | 0.00 | 38 | 1020.3 |
| 20260503191203 | 66 | 126 | 5.0 | 9.0 | 0.00 | 0.00 | 0.00 | 38 | 1020.5 |
| 20260503190705 | 66 | 134 | 7.0 | 13.0 | 0.00 | 0.00 | 0.00 | 38 | 1020.4 |
| 20260503185705 | 66 | 116 | 7.0 | 12.0 | 0.00 | 0.00 | 0.00 | 38 | 1020.4 |
| 20260503185205 | 67 | 123 | 7.0 | 13.0 | 0.00 | 0.00 | 0.00 | 38 | 1020.3 |
| 20260503184705 | 67 | 141 | 5.0 | 10.0 | 0.00 | 0.00 | 0.00 | 38 | 1020.3 |
| 20260503184205 | 67 | 139 | 6.0 | 9.0 | 0.00 | 0.00 | 0.00 | 38 | 1020.2 |
| 20260503183705 | 67 | 138 | 6.0 | 10.0 | 0.00 | 0.00 | 0.00 | 38 | 1020.3 |
| 20260503183205 | 67 | 148 | 4.0 | 8.0 | 0.00 | 0.00 | 0.00 | 38 | 1020.1 |
| 20260503182706 | 68 | 121 | 5.0 | 12.0 | 0.00 | 0.00 | 0.00 | 38 | 1020.1 |
| 20260503182206 | 68 | 128 | 6.0 | 12.0 | 0.00 | 0.00 | 0.00 | 38 | 1020.2 |
| 20260503181206 | 69 | 128 | 6.0 | 12.0 | 0.00 | 0.00 | 0.00 | 37 | 1020.0 |
| 20260503180705 | 69 | 128 | 7.0 | 12.0 | 0.00 | 0.00 | 0.00 | 37 | 1020.0 |
| 20260503175705 | 70 | 156 | 6.0 | 10.0 | 0.00 | 0.00 | 0.00 | 37 | 1019.7 |
| 20260503175205 | 70 | 119 | 5.0 | 14.0 | 0.00 | 0.00 | 0.00 | 37 | 1019.6 |
| 20260503174705 | 71 | 122 | 5.0 | 14.0 | 0.00 | 0.00 | 0.00 | 37 | 1019.5 |
| 20260503174205 | 71 | 120 | 5.0 | 12.0 | 0.00 | 0.00 | 0.00 | 36 | 1019.5 |
| 20260503173205 | 71 | 130 | 7.0 | 12.0 | 0.00 | 0.00 | 0.00 | 36 | 1019.6 |
| 20260503172205 | 72 | 133 | 7.0 | 14.0 | 0.00 | 0.00 | 0.00 | 35 | 1019.5 |
| 20260503171205 | 73 | 130 | 5.0 | 13.0 | 0.00 | 0.00 | 0.00 | 35 | 1019.6 |
| 20260503170705 | 73 | 144 | 5.0 | 15.0 | 0.00 | 0.00 | 0.00 | 35 | 1019.6 |
| 20260503170206 | 73 | 138 | 6.0 | 14.0 | 0.00 | 0.00 | 0.00 | 34 | 1019.5 |
| 20260503150705 | 77 | 144 | 9.0 | 22.0 | 0.00 | 0.00 | 0.00 | 31 | 1019.9 |
| 20260503150205 | 77 | 145 | 8.0 | 16.0 | 0.00 | 0.00 | 0.00 | 31 | 1020.1 |
| 20260503140205 | 77 | 177 | 9.0 | 16.0 | 0.00 | 0.00 | 0.00 | 31 | 1020.5 |
| 20260503130705 | 77 | 193 | 9.0 | 20.0 | 0.00 | 0.00 | 0.00 | 31 | 1021.5 |
| 20260503130205 | 77 | 128 | 10.0 | 18.0 | 0.00 | 0.00 | 0.00 | 32 | 1021.3 |
| 20260503110705 | 75 | 217 | 12.0 | 17.0 | 0.00 | 0.00 | 0.00 | 32 | 1022.4 |
| 20260503110207 | 75 | 196 | 6.0 | 17.0 | 0.00 | 0.00 | 0.00 | 33 | 1022.5 |
| 20260503100205 | 74 | 148 | 9.0 | 14.0 | 0.00 | 0.00 | 0.00 | 34 | 1023.4 |
| 20260503090205 | 71 | 176 | 6.0 | 13.0 | 0.00 | 0.00 | 0.00 | 35 | 1023.6 |
| 20260503081205 | 69 | 157 | 6.0 | 15.0 | 0.00 | 0.00 | 0.00 | 38 | 1024.0 |
| 20260503080705 | 69 | 127 | 7.0 | 14.0 | 0.00 | 0.00 | 0.00 | 37 | 1024.2 |
| 20260503072204 | 66 | 137 | 8.0 | 15.0 | 0.00 | 0.00 | 0.00 | 42 | 1024.2 |
| 20260503071704 | 66 | 142 | 6.0 | 9.0 | 0.00 | 0.00 | 0.00 | 43 | 1024.1 |
| 20260503071205 | 65 | 169 | 6.0 | 20.0 | 0.00 | 0.00 | 0.00 | 42 | 1024.0 |
| 20260503070704 | 65 | 118 | 7.0 | 20.0 | 0.00 | 0.00 | 0.00 | 43 | 1024.2 |
| 20260503070205 | 65 | 133 | 6.0 | 13.0 | 0.00 | 0.00 | 0.00 | 43 | 1024.2 |
| 20260503060205 | 51 | 183 | 3.0 | 5.0 | 0.00 | 0.00 | 0.00 | 77 | 1024.7 |
| 20260503054704 | 47 | 212 | 2.0 | 2.0 | 0.00 | 0.00 | 0.00 | 81 | 1024.8 |
| 20260503054205 | 46 | 228 | 0.0 | 2.0 | 0.00 | 0.00 | 0.00 | 82 | 1025.0 |
| 20260503053704 | 45 | 283 | 0.0 | 3.0 | 0.00 | 0.00 | 0.00 | 83 | 1024.9 |
| 20260503053205 | 44 | 218 | 0.0 | 2.0 | 0.00 | 0.00 | 0.00 | 83 | 1024.9 |
| 20260503052704 | 43 | 63 | 1.0 | 2.0 | 0.00 | 0.00 | 0.00 | 83 | 1025.2 |
| 20260503051704 | 42 | 74 | 1.0 | 2.0 | 0.00 | 0.00 | 0.00 | 84 | 1025.1 |
| 20260503051205 | 42 | 358 | 0.0 | 2.0 | 0.00 | 0.00 | 0.00 | 84 | 1025.2 |
| 20260503050205 | 40 | 339 | 1.0 | 2.0 | 0.00 | 0.00 | 0.00 | 84 | 1025.3 |
| 20260503045704 | 40 | 66 | 1.0 | 2.0 | 0.00 | 0.00 | 0.00 | 84 | 1025.2 |
| 20260503044205 | 39 | 352 | 1.0 | 2.0 | 0.00 | 0.00 | 0.00 | 83 | 1025.4 |
| 20260503043705 | 39 | 345 | 0.0 | 2.0 | 0.00 | 0.00 | 0.00 | 83 | 1025.4 |
| 20260503043204 | 38 | 305 | 0.0 | 2.0 | 0.00 | 0.00 | 0.00 | 83 | 1025.4 |
| 20260503042705 | 38 | 299 | 1.0 | 2.0 | 0.00 | 0.00 | 0.00 | 83 | 1025.4 |
| 20260503042205 | 38 | 309 | 1.0 | 2.0 | 0.00 | 0.00 | 0.00 | 82 | 1025.3 |
| 20260503041705 | 38 | 304 | 1.0 | 2.0 | 0.00 | 0.00 | 0.00 | 82 | 1025.2 |
| 20260503041204 | 38 | 308 | 1.0 | 2.0 | 0.00 | 0.00 | 0.00 | 82 | 1025.1 |
| 20260503040704 | 38 | 286 | 1.0 | 2.0 | 0.00 | 0.00 | 0.00 | 82 | 1025.1 |
| 20260503040205 | 38 | 279 | 1.0 | 2.0 | 0.00 | 0.00 | 0.00 | 82 | 1025.2 |
| 20260503035705 | 38 | 329 | 1.0 | 2.0 | 0.00 | 0.00 | 0.00 | 81 | 1025.2 |
| 20260503035204 | 38 | 336 | 1.0 | 2.0 | 0.00 | 0.00 | 0.00 | 81 | 1025.0 |
| 20260503034704 | 38 | 316 | 1.0 | 2.0 | 0.00 | 0.00 | 0.00 | 81 | 1025.2 |
| 20260503033705 | 38 | 285 | 1.0 | 2.0 | 0.00 | 0.00 | 0.00 | 81 | 1025.2 |
| 20260503033204 | 38 | 293 | 2.0 | 2.0 | 0.00 | 0.00 | 0.00 | 80 | 1025.3 |
| 20260503032705 | 38 | 261 | 1.0 | 2.0 | 0.00 | 0.00 | 0.00 | 80 | 1025.2 |
| 20260503031704 | 38 | 299 | 1.0 | 2.0 | 0.00 | 0.00 | 0.00 | 80 | 1025.3 |
| 20260503031204 | 38 | 297 | 1.0 | 3.0 | 0.00 | 0.00 | 0.00 | 80 | 1025.1 |
| 20260503030204 | 38 | 298 | 1.0 | 2.0 | 0.00 | 0.00 | 0.00 | 79 | 1025.0 |
| 20260503025704 | 39 | 275 | 1.0 | 2.0 | 0.00 | 0.00 | 0.00 | 79 | 1024.9 |
| 20260503025204 | 39 | 287 | 2.0 | 2.0 | 0.00 | 0.00 | 0.00 | 79 | 1024.9 |
| 20260503024704 | 39 | 286 | 1.0 | 2.0 | 0.00 | 0.00 | 0.00 | 79 | 1024.7 |
| 20260503024205 | 39 | 275 | 1.0 | 2.0 | 0.00 | 0.00 | 0.00 | 78 | 1024.8 |
| 20260503023204 | 39 | 294 | 0.0 | 2.0 | 0.00 | 0.00 | 0.00 | 78 | 1024.8 |
| 20260503022705 | 39 | 296 | 1.0 | 2.0 | 0.00 | 0.00 | 0.00 | 78 | 1024.8 |
| 20260503022204 | 39 | 271 | 1.0 | 2.0 | 0.00 | 0.00 | 0.00 | 77 | 1024.9 |
| 20260503021704 | 40 | 292 | 2.0 | 2.0 | 0.00 | 0.00 | 0.00 | 77 | 1024.6 |
| 20260503021205 | 40 | 289 | 1.0 | 2.0 | 0.00 | 0.00 | 0.00 | 77 | 1024.8 |
| 20260503020704 | 40 | 296 | 2.0 | 2.0 | 0.00 | 0.00 | 0.00 | 77 | 1024.6 |
| 20260503020205 | 40 | 275 | 1.0 | 2.0 | 0.00 | 0.00 | 0.00 | 76 | 1024.7 |
| 20260503015705 | 40 | 323 | 1.0 | 3.0 | 0.00 | 0.00 | 0.00 | 76 | 1024.7 |
| 20260503015205 | 40 | 302 | 1.0 | 2.0 | 0.00 | 0.00 | 0.00 | 76 | 1024.8 |
| 20260503014704 | 40 | 284 | 1.0 | 2.0 | 0.00 | 0.00 | 0.00 | 76 | 1024.8 |
| 20260503013704 | 41 | 262 | 1.0 | 2.0 | 0.00 | 0.00 | 0.00 | 76 | 1024.6 |
| 20260503013204 | 41 | 291 | 2.0 | 3.0 | 0.00 | 0.00 | 0.00 | 76 | 1024.7 |
| 20260503012705 | 41 | 284 | 2.0 | 5.0 | 0.00 | 0.00 | 0.00 | 76 | 1024.6 |
| 20260503012204 | 41 | 350 | 2.0 | 3.0 | 0.00 | 0.00 | 0.00 | 76 | 1024.6 |
| 20260503011205 | 41 | 339 | 1.0 | 2.0 | 0.00 | 0.00 | 0.00 | 74 | 1024.6 |
| 20260503010704 | 42 | 331 | 1.0 | 2.0 | 0.00 | 0.00 | 0.00 | 73 | 1024.7 |
| 20260503010204 | 42 | 345 | 1.0 | 2.0 | 0.00 | 0.00 | 0.00 | 73 | 1024.7 |
| 20260503005704 | 42 | 320 | 2.0 | 3.0 | 0.00 | 0.00 | 0.00 | 72 | 1024.8 |
| 20260503005205 | 42 | 318 | 1.0 | 2.0 | 0.00 | 0.00 | 0.00 | 72 | 1024.9 |
| 20260503004705 | 42 | 292 | 1.0 | 2.0 | 0.00 | 0.00 | 0.00 | 71 | 1024.8 |
| 20260503004204 | 42 | 327 | 1.0 | 2.0 | 0.00 | 0.00 | 0.00 | 71 | 1024.8 |
| 20260503003705 | 42 | 259 | 1.0 | 2.0 | 0.00 | 0.00 | 0.00 | 71 | 1024.7 |
| 20260503003204 | 43 | 292 | 1.0 | 2.0 | 0.00 | 0.00 | 0.00 | 72 | 1024.8 |
| 20260503002704 | 43 | 270 | 1.0 | 5.0 | 0.00 | 0.00 | 0.00 | 72 | 1024.8 |
| 20260503002205 | 42 | 179 | 3.0 | 5.0 | 0.00 | 0.00 | 0.00 | 73 | 1024.7 |
| 20260503001705 | 43 | 209 | 0.0 | 1.0 | 0.00 | 0.00 | 0.00 | 72 | 1024.7 |
| 20260503000704 | 43 | 346 | 1.0 | 2.0 | 0.00 | 0.00 | 0.00 | 71 | 1024.5 |
| 20260502235704 | 43 | 297 | 1.0 | 2.0 | 0.00 | 0.00 | 0.00 | 71 | 1024.4 |
| 20260502235204 | 43 | 284 | 1.0 | 2.0 | 0.00 | 0.00 | 0.00 | 70 | 1024.7 |
| 20260502234704 | 43 | 331 | 1.0 | 2.0 | 0.00 | 0.00 | 0.00 | 69 | 1024.5 |
| 20260502234204 | 44 | 338 | 0.0 | 1.0 | 0.00 | 0.00 | 0.00 | 69 | 1024.7 |
| 20260502233704 | 44 | 330 | 1.0 | 3.0 | 0.00 | 0.00 | 0.00 | 70 | 1024.4 |
| 20260502233204 | 44 | 289 | 2.0 | 3.0 | 0.00 | 0.00 | 0.00 | 70 | 1024.8 |
| 20260502232704 | 44 | 334 | 1.0 | 2.0 | 0.00 | 0.00 | 0.00 | 68 | 1024.7 |
| 20260502232204 | 44 | 3 | 1.0 | 2.0 | 0.00 | 0.00 | 0.00 | 67 | 1024.6 |
| 20260502231204 | 44 | 350 | 1.0 | 2.0 | 0.00 | 0.00 | 0.00 | 66 | 1024.7 |
| 20260502230204 | 44 | 293 | 1.0 | 2.0 | 0.00 | 0.00 | 0.00 | 65 | 1024.7 |
| 20260502225705 | 45 | 283 | 1.0 | 2.0 | 0.00 | 0.00 | 0.00 | 65 | 1024.7 |
| 20260502225204 | 45 | 353 | 1.0 | 2.0 | 0.00 | 0.00 | 0.00 | 64 | 1024.5 |
| 20260502224705 | 45 | 357 | 1.0 | 2.0 | 0.00 | 0.00 | 0.00 | 64 | 1024.7 |
| 20260502224204 | 45 | 287 | 1.0 | 5.0 | 0.00 | 0.00 | 0.00 | 64 | 1024.7 |
| 20260502223704 | 45 | 256 | 2.0 | 3.0 | 0.00 | 0.00 | 0.00 | 64 | 1024.7 |
| 20260502222705 | 45 | 297 | 1.0 | 2.0 | 0.00 | 0.00 | 0.00 | 64 | 1024.8 |